{"data":{"norad_id":63866,"epoch":"2026-05-25T03:35:10.603392Z","epoch_age_seconds":72884,"freshness":"FRESH","line1":"1 63866U 25094C   26145.14942828  .00003120  00000+0  26906-3 0  9996","line2":"2 63866  70.0023  41.7712 0002207 271.9476  88.1430 14.98339120 58650","mean_motion":14.9833912,"eccentricity":0.0002207,"inclination_deg":70.0023,"raan_deg":41.7712,"arg_perigee_deg":271.9476,"mean_anomaly_deg":88.143,"bstar":0.00026906,"rev_number":5865,"period_min":96.106414147419,"perigee_km":570.49378689309,"apogee_km":573.56158958648,"semimajor_km":6950.1646882398,"source":"CELESTRAK","updated_at":"2026-05-25T13:38:20.168993Z"}}